H1 CPF 2 NER 2022 6 3 9 154 01 glonass127 H2 1106403 9127 37869 2022 6 3 0 0 0 2022 6 6 23 45 0 900 1 1 0 0 0 1 H9 10 0 59733 0.00000 0 2441817.422 -13403511.262 21630977.519 10 0 59733 900.00000 0 4163146.559 -11309026.000 22545882.643 10 0 59733 1800.00000 0 6092668.308 -9284683.332 23025829.597 10 0 59733 2700.00000 0 8188569.437 -7385489.086 23061537.678 10 0 59733 3600.00000 0 10399808.003 -5658450.825 22652234.744 10 0 59733 4500.00000 0 12668030.538 -4140798.760 21805678.077 10 0 59733 5400.00000 0 14929806.200 -2858622.675 20538018.877 10 0 59733 6300.00000 0 17119088.486 -1825980.179 18873511.774 10 0 59733 7200.00000 0 19169805.345 -1044512.948 16844073.098 10 0 59733 8100.00000 0 21018472.820 -503587.304 14488694.049 10 0 59733 9000.00000 0 22606725.516 -180954.280 11852717.342 10 0 59733 9900.00000 0 23883659.439 -43903.188 8986988.625 10 0 59733 10800.00000 0 24807889.542 -50862.073 5946896.477 10 0 59733 11700.00000 0 25349234.987 -153379.511 2791317.378 10 0 59733 12600.00000 0 25489959.623 -298405.652 -418515.392 10 0 59733 13500.00000 0 25225513.192 -430776.965 -3620197.855 10 0 59733 14400.00000 0 24564739.143 -495799.544 -6751373.528 10 0 59733 15300.00000 0 23529537.413 -441820.718 -9750959.280 10 0 59733 16200.00000 0 22153993.656 -222678.139 -12560353.699 10 0 59733 17100.00000 0 20483009.417 200079.987 -15124602.657 10 0 59733 18000.00000 0 18570489.575 855300.760 -17393497.087 10 0 59733 18900.00000 0 16477162.790 1760742.129 -19322579.284 10 0 59733 19800.00000 0 14268126.915 2922064.367 -20874035.879 10 0 59733 20700.00000 0 12010223.650 4332343.131 -22017457.903 10 0 59733 21600.00000 0 9769354.221 5972127.201 -22730451.466 10 0 59733 22500.00000 0 7607850.535 7810040.254 -22999085.880 10 0 59733 23400.00000 0 5582013.868 9803902.228 -22818169.668 10 0 59733 24300.00000 0 3739925.620 11902323.245 -22191348.913 10 0 59733 25200.00000 0 2119622.654 14046702.485 -21131026.264 10 0 59733 26100.00000 0 747713.706 16173546.828 -19658102.971 10 0 59733 27000.00000 0 -361506.086 18217010.440 -17801550.178 10 0 59733 27900.00000 0 -1206407.288 20111547.124 -15597819.329 10 0 59733 28800.00000 0 -1797832.742 21794562.683 -13090105.043 10 0 59733 29700.00000 0 -2158370.097 23208955.024 -10327476.798 10 0 59733 30600.00000 0 -2321124.617 24305435.048 -7363898.300 10 0 59733 31500.00000 0 -2328047.679 25044531.225 -4257155.708 10 0 59733 32400.00000 0 -2227895.036 25398194.870 -1067717.289 10 0 59733 33300.00000 0 -2073903.992 25350940.554 2142451.936 10 0 59733 34200.00000 0 -1921289.817 24900476.156 5311096.431 10 0 59733 35100.00000 0 -1824668.499 24057798.819 8376873.491 10 0 59733 36000.00000 0 -1835515.044 22846755.494 11280530.571 10 0 59733 36900.00000 0 -1999764.111 21303088.946 13966034.543 10 0 59733 37800.00000 0 -2355652.920 19473011.040 16381632.524 10 0 59733 38700.00000 0 -2931895.640 17411364.041 18480825.731 10 0 59733 39600.00000 0 -3746264.133 15179446.896 20223239.839 10 0 59733 40500.00000 0 -4804632.981 12842596.327 21575377.584 10 0 59733 41400.00000 0 -6100527.628 10467621.702 22511241.638 10 0 59733 42300.00000 0 -7615193.996 8120197.959 23012817.918 10 0 59733 43200.00000 0 -9318187.052 5862321.947 23070411.884 10 0 59733 44100.00000 0 -11168455.098 3749934.596 22682832.501 10 0 59733 45000.00000 0 -13115876.667 1830804.714 21857420.714 10 0 59733 45900.00000 0 -15103188.881 142759.604 20609921.564 10 0 59733 46800.00000 0 -17068230.199 -1287665.918 18964201.204 10 0 59733 47700.00000 0 -18946407.437 -2446106.971 16951812.452 10 0 59733 48600.00000 0 -20673287.323 -3330736.255 14611414.899 10 0 59733 49500.00000 0 -22187207.002 -3952105.992 11988058.044 10 0 59733 50400.00000 0 -23431796.049 -4332469.488 9132338.588 10 0 59733 51300.00000 0 -24358305.158 -4504609.142 6099445.590 10 0 59733 52200.00000 0 -24927643.525 -4510218.368 2948109.725 10 0 59733 53100.00000 0 -25112037.947 -4397903.903 -260524.499 10 0 59733 54000.00000 0 -24896241.639 -4220891.706 -3464082.638 10 0 59733 54900.00000 0 -24278239.010 -4034532.930 -6600177.471 10 0 59733 55800.00000 0 -23269413.524 -3893715.875 -9607635.039 10 0 59733 56700.00000 0 -21894168.492 -3850294.843 -12427704.476 10 0 59733 57600.00000 0 -20189013.975 -3950646.892 -15005226.251 10 0 59733 58500.00000 0 -18201156.205 -4233462.757 -17289733.835 10 0 59733 59400.00000 0 -15986647.604 -4727868.646 -19236465.023 10 0 59733 60300.00000 0 -13608174.753 -5451961.678 -20807260.926 10 0 59733 61200.00000 0 -11132577.751 -6411823.990 -21971332.979 10 0 59733 62100.00000 0 -8628206.131 -7601059.806 -22705881.294 10 0 59733 63000.00000 0 -6162223.729 -9000877.043 -22996551.037 10 0 59733 63900.00000 0 -3797977.152 -10580711.165 -22837717.092 10 0 59733 64800.00000 0 -1592539.539 -12299365.423 -22232591.242 10 0 59733 65700.00000 0 405466.561 -14106619.087 -21193150.020 10 0 59733 66600.00000 0 2157675.587 -15945234.897 -19739885.363 10 0 59733 67500.00000 0 3637339.553 -17753279.846 -17901384.126 10 0 59733 68400.00000 0 4830187.226 -19466659.962 -15713746.139 10 0 59733 69300.00000 0 5734748.123 -21021760.816 -13219853.993 10 0 59733 70200.00000 0 6362130.837 -22358081.352 -10468510.751 10 0 59733 71100.00000 0 6735268.593 -23420749.448 -7513464.363 10 0 59733 72000.00000 0 6887667.662 -24162813.141 -4412339.843 10 0 59733 72900.00000 0 6861715.131 -24547211.764 -1225501.724 10 0 59733 73800.00000 0 6706620.899 -24548345.340 1985129.677 10 0 59733 74700.00000 0 6476083.460 -24153178.150 5157284.058 10 0 59733 75600.00000 0 6225779.994 -23361832.434 8229545.223 10 0 59733 76500.00000 0 6010787.703 -22187649.763 11142530.256 10 0 59733 77400.00000 0 5883045.181 -20656719.889 13840021.675 10 0 59733 78300.00000 0 5888960.028 -18806898.794 16270032.110 10 0 59733 79200.00000 0 6067261.978 -16686358.238 18385782.864 10 0 59733 80100.00000 0 6447189.934 -14351727.904 20146579.719 10 0 59733 81000.00000 0 7047087.115 -11865907.081 21518571.640 10 0 59733 81900.00000 0 7873461.567 -9295635.486 22475380.263 10 0 59733 82800.00000 0 8920550.224 -6708922.056 22998590.252 10 0 59733 83700.00000 0 10170404.402 -4172435.544 23078092.947 10 0 59733 84600.00000 0 11593493.751 -1748961.951 22712277.878 10 0 59733 85500.00000 0 13149804.860 504968.920 21908068.911 10 0 59734 0.00000 0 14790390.879 2541192.168 20680804.127 10 0 59734 900.00000 0 16459311.245 4321667.726 19053959.886 10 0 59734 1800.00000 0 18095881.581 5819817.297 17058724.350 10 0 59734 2700.00000 0 19637145.876 7021387.136 14733424.113 10 0 59734 3600.00000 0 21020468.275 7924797.833 12122813.906 10 0 59734 4500.00000 0 22186138.922 8540966.741 9277239.747 10 0 59734 5400.00000 0 23079885.728 8892608.849 6251689.243 10 0 59734 6300.00000 0 23655186.777 9013043.751 3104745.141 10 0 59734 7200.00000 0 23875285.177 8944557.077 -102539.142 10 0 59734 8100.00000 0 23714819.672 8736384.046 -3307821.144 10 0 59734 9000.00000 0 23160999.575 8442399.373 -6448685.424 10 0 59734 9900.00000 0 22214271.290 8118611.062 -9463869.708 10 0 59734 10800.00000 0 20888444.932 7820564.873 -12294476.098 10 0 59734 11700.00000 0 19210272.478 7600770.911 -14885141.932 10 0 59734 12600.00000 0 17218492.537 7506263.598 -17185145.303 10 0 59734 13500.00000 0 14962379.924 7576401.162 -19149421.383 10 0 59734 14400.00000 0 12499859.885 7841000.805 -20739467.453 10 0 59734 15300.00000 0 9895265.982 8318891.443 -21924116.848 10 0 59734 16200.00000 0 7216836.242 9016947.881 -22680164.999 10 0 59734 17100.00000 0 4534053.614 9929649.326 -22992834.038 10 0 59734 18000.00000 0 1914943.694 11039182.268 -22856066.081 10 0 59734 18900.00000 0 -576555.733 12316083.954 -22272639.187 10 0 59734 19800.00000 0 -2883042.024 13720399.122 -21254103.988 10 0 59734 20700.00000 0 -4955808.734 15203300.265 -19820542.923 10 0 59734 21600.00000 0 -6756630.040 16709101.699 -18000157.951 10 0 59734 22500.00000 0 -8259094.753 18177580.764 -15828696.254 10 0 59734 23400.00000 0 -9449435.776 19546506.443 -13348726.953 10 0 59734 24300.00000 0 -10326822.937 20754267.151 -10608784.877 10 0 59734 25200.00000 0 -10903110.225 21742485.670 -7662400.075 10 0 59734 26100.00000 0 -11202051.797 22458510.273 -4567033.988 10 0 59734 27000.00000 0 -11258023.679 22857677.068 -1382944.760 10 0 59734 27900.00000 0 -11114308.751 22905248.962 1827994.823 10 0 59734 28800.00000 0 -10821020.507 22577950.973 5003502.656 10 0 59734 29700.00000 0 -10432755.697 21865039.193 8082092.081 10 0 59734 30600.00000 0 -10006076.417 20768860.641 11004252.870 10 0 59734 31500.00000 0 -9596928.395 19304882.777 13713586.209 10 0 59734 32400.00000 0 -9258103.899 17501193.388 16157873.181 10 0 59734 33300.00000 0 -9036854.853 15397493.206 18290057.977 10 0 59734 34200.00000 0 -8972754.770 13043624.090 20069129.107 10 0 59734 35100.00000 0 -9095897.156 10497693.931 21460884.143 10 0 59734 36000.00000 0 -9425503.954 7823875.188 22438565.775 10 0 59734 36900.00000 0 -9969000.552 5089966.620 22983359.152 10 0 59734 37800.00000 0 -10721595.036 2364816.685 23084742.830 10 0 59734 38700.00000 0 -11666379.022 -284287.768 22740687.778 10 0 59734 39600.00000 0 -12774946.539 -2794162.529 21957701.131 10 0 59734 40500.00000 0 -14008506.681 -5108094.747 20750713.551 10 0 59734 41400.00000 0 -15319445.920 -7177943.919 19142811.267 10 0 59734 42300.00000 0 -16653277.615 -8965889.958 17164816.229 10 0 59734 43200.00000 0 -17950900.259 -10445757.018 14854720.111 10 0 59734 44100.00000 0 -19151072.858 -11603858.329 12256980.425 10 0 59734 45000.00000 0 -20193006.077 -12439326.225 9421689.629 10 0 59734 45900.00000 0 -21018962.071 -12963912.451 6403630.629 10 0 59734 46800.00000 0 -21576754.386 -13201265.410 3261234.727 10 0 59734 47700.00000 0 -21822042.295 -13185712.884 55460.558 10 0 59734 48600.00000 0 -21720321.414 -12960599.740 -3151385.196 10 0 59734 49500.00000 0 -21248524.211 -12576249.459 -6296862.684 10 0 59734 50400.00000 0 -20396159.818 -12087634.886 -9319625.095 10 0 59734 51300.00000 0 -19165941.534 -11551856.866 -12160631.141 10 0 59734 52200.00000 0 -17573872.012 -11025538.400 -14764318.472 10 0 59734 53100.00000 0 -15648779.368 -10562246.387 -17079712.935 10 0 59734 54000.00000 0 -13431321.079 -10210052.418 -19061449.781 10 0 59734 54900.00000 0 -10972495.741 -10009338.588 -20670684.632 10 0 59734 55800.00000 0 -8331724.283 -9990943.925 -21875874.269 10 0 59734 56700.00000 0 -5574581.069 -10174732.432 -22653410.290 10 0 59734 57600.00000 0 -2770270.599 -10568645.384 -22988091.935 10 0 59734 58500.00000 0 11043.309 -11168279.415 -22873428.002 10 0 59734 59400.00000 0 2700942.694 -11957008.887 -22311761.661 10 0 59734 60300.00000 0 5235380.546 -12906647.322 -21314215.953 10 0 59734 61200.00000 0 7557114.936 -13978619.080 -19900461.682 10 0 59734 62100.00000 0 9617850.011 -15125590.382 -18098313.427 10 0 59734 63000.00000 0 11379994.666 -16293488.960 -15943162.946 10 0 59734 63900.00000 0 12817966.418 -17423824.941 -13477262.885 10 0 59734 64800.00000 0 13918988.018 -18456213.009 -10748876.664 10 0 59734 65700.00000 0 14683346.295 -19330987.611 -7811313.125 10 0 59734 66600.00000 0 15124105.799 -19991799.558 -4721866.760 10 0 59734 67500.00000 0 15266293.146 -20388083.864 -1540685.953 10 0 59734 68400.00000 0 15145590.221 -20477294.821 1670407.329 10 0 59734 69300.00000 0 14806594.775 -20226814.891 4849122.295 10 0 59734 70200.00000 0 14300724.681 -19615458.460 7933904.701 10 0 59734 71100.00000 0 13683856.253 -18634509.010 10865119.547 10 0 59734 72000.00000 0 13013797.259 -17288248.160 13586188.862 10 0 59734 72900.00000 0 12347701.172 -15593956.339 16044663.943 10 0 59734 73800.00000 0 11739530.618 -13581386.554 18193213.204 10 0 59734 74700.00000 0 11237675.039 -11291734.255 19990508.785 10 0 59734 75600.00000 0 10882820.481 -8776146.329 21401997.356 10 0 59734 76500.00000 0 10706158.532 -6093830.501 22400542.756 10 0 59734 77400.00000 0 10728007.242 -3309842.100 22966930.353 10 0 59734 78300.00000 0 10956900.006 -492637.549 23090225.325 10 0 59734 79200.00000 0 11389179.500 2288507.074 22767979.216 10 0 59734 80100.00000 0 12009113.458 4966108.750 22006281.332 10 0 59734 81000.00000 0 12789528.236 7477016.647 20819653.756 10 0 59734 81900.00000 0 13692935.315 9764775.587 19230790.927 10 0 59734 82800.00000 0 14673105.943 11781718.177 17270147.111 10 0 59734 83700.00000 0 15677030.742 13490700.484 14975377.377 10 0 59734 84600.00000 0 16647185.005 14866409.864 12390640.235 10 0 59734 85500.00000 0 17524007.198 15896190.209 9565772.659 10 0 59735 0.00000 0 18248488.451 16580349.255 6555351.099 10 0 59735 900.00000 0 18764765.598 16931933.780 3417652.697 10 0 59735 1800.00000 0 19022607.660 16975979.402 213539.306 10 0 59735 2700.00000 0 18979691.267 16748265.798 -2994720.510 10 0 59735 3600.00000 0 18603565.943 16293627.101 -6144664.843 10 0 59735 4500.00000 0 17873223.850 15663888.023 -9174864.637 10 0 59735 5400.00000 0 16780204.232 14915512.378 -12026137.399 10 0 59735 6300.00000 0 15329182.227 14107063.764 -14642723.116 10 0 59735 7200.00000 0 13538013.686 13296586.983 -16973397.228 10 0 59735 8100.00000 0 11437230.938 12539022.804 -18972496.728 10 0 59735 9000.00000 0 9069008.214 11883767.753 -20600837.066 10 0 59735 9900.00000 0 6485638.656 11372484.655 -21826499.793 10 0 59735 10800.00000 0 3747586.066 11037258.957 -22625473.843 10 0 59735 11700.00000 0 921193.151 10899180.833 -22982136.564 10 0 59735 12600.00000 0 -1923856.906 10967414.534 -22889564.212 10 0 59735 13500.00000 0 -4717218.147 11238795.071 -22349665.569 10 0 59735 14400.00000 0 -7390585.482 11697969.259 -21373136.235 10 0 59735 15300.00000 0 -9880309.925 12318074.379 -19979235.148 10 0 59735 16200.00000 0 -12129815.303 13061924.281 -18195388.855 10 0 59735 17100.00000 0 -14091715.216 13883650.844 -16056632.647 10 0 59735 18000.00000 0 -15729542.221 14730729.103 -13604901.289 10 0 59735 18900.00000 0 -17019018.357 15546298.099 -10888185.085 10 0 59735 19800.00000 0 -17948816.108 16271677.197 -7959569.708 10 0 59735 20700.00000 0 -18520780.840 16848969.726 -4876180.561 10 0 59735 21600.00000 0 -18749608.982 17223642.763 -1698053.970 10 0 59735 22500.00000 0 -18661999.191 17346973.612 1513041.340 10 0 59735 23400.00000 0 -18295315.864 17178259.947 4694808.426 10 0 59735 24300.00000 0 -17695824.506 16686701.355 7785628.080 10 0 59735 25200.00000 0 -16916575.778 15852874.475 10725743.243 10 0 59735 26100.00000 0 -16015028.939 14669741.475 13458399.539 10 0 59735 27000.00000 0 -15050515.312 13143151.369 15930921.233 10 0 59735 27900.00000 0 -14081648.017 11291814.763 18095703.658 10 0 59735 28800.00000 0 -13163785.477 9146754.225 19911105.174 10 0 59735 29700.00000 0 -12346653.135 6750253.663 21342223.947 10 0 59735 30600.00000 0 -11672220.595 4154349.946 22361547.127 10 0 59735 31500.00000 0 -11172920.586 1418928.278 22949462.161 10 0 59735 32400.00000 0 -10870281.946 -1390501.851 23094622.359 10 0 59735 33300.00000 0 -10774032.018 -4205260.787 22794160.952 10 0 59735 34200.00000 0 -10881705.005 -6956084.428 22053750.095 10 0 59735 35100.00000 0 -11178772.549 -9575737.915 20887503.502 10 0 59735 36000.00000 0 -11639291.911 -12001552.291 19317723.548 10 0 59735 36900.00000 0 -12227046.283 -14177781.677 17374496.032 10 0 59735 37800.00000 0 -12897131.724 -16057685.237 15095138.153 10 0 59735 38700.00000 0 -13597926.776 -17605248.594 12523507.681 10 0 59735 39600.00000 0 -14273364.599 -18796473.156 9709183.947 10 0 59735 40500.00000 0 -14865414.293 -19620178.938 6706533.849 10 0 59735 41400.00000 0 -15316668.442 -20078285.890 3573678.601 10 0 59735 42300.00000 0 -15572928.372 -20185559.969 371379.610 10 0 59735 43200.00000 0 -15585677.583 -19968832.539 -2838136.022 10 0 59735 44100.00000 0 -15314337.373 -19465723.871 -5992387.853 10 0 59735 45000.00000 0 -14728206.863 -18722922.911 -9029868.221 10 0 59735 45900.00000 0 -13808002.280 -17794094.879 -11891257.128 10 0 59735 46800.00000 0 -12546926.780 -16737504.805 -14520600.556 10 0 59735 47700.00000 0 -10951221.973 -15613457.976 -16866427.056 10 0 59735 48600.00000 0 -9040174.322 -14481666.790 -18882778.603 10 0 59735 49500.00000 0 -6845573.153 -13398657.147 -20530133.313 10 0 59735 50400.00000 0 -4410640.884 -12415326.229 -21776199.834 10 0 59735 51300.00000 0 -1788479.015 -11574757.093 -22596566.152 10 0 59735 52200.00000 0 959905.460 -10910384.418 -22975188.772 10 0 59735 53100.00000 0 3767910.117 -10444590.448 -22904711.803 10 0 59735 54000.00000 0 6565886.083 -10187791.269 -22386609.399 10 0 59735 54900.00000 0 9283818.036 -10138052.108 -21431148.903 10 0 59735 55800.00000 0 11854021.732 -10281247.185 -20057176.064 10 0 59735 56700.00000 0 14213745.153 -10591755.861 -18291727.603 10 0 59735 57600.00000 0 16307563.866 -11033663.597 -16169480.129 10 0 59735 58500.00000 0 18089470.276 -11562414.448 -13732047.904 10 0 59735 59400.00000 0 19524570.220 -12126842.515 -11027145.123 10 0 59735 60300.00000 0 20590317.461 -12671493.874 -8107630.967 10 0 59735 61200.00000 0 21277236.746 -13139138.443 -5030458.152 10 0 59735 62100.00000 0 21589108.216 -13473363.824 -1855547.177 10 0 59735 63000.00000 0 21542608.895 -13621140.361 1355390.306 10 0 59735 63900.00000 0 21166429.928 -13535248.705 4540054.949 10 0 59735 64800.00000 0 20499910.043 -13176467.816 7636766.124 10 0 59735 65700.00000 0 19591245.610 -12515432.144 10585647.921 10 0 59735 66600.00000 0 18495354.576 -11534081.335 13329772.347 10 0 59735 67500.00000 0 17271485.221 -10226643.220 15816238.941 10 0 59735 68400.00000 0 15980670.224 -8600110.444 17997171.767 10 0 59735 69300.00000 0 14683131.964 -6674192.150 19830616.699 10 0 59735 70200.00000 0 13435746.061 -4480743.403 21281324.218 10 0 59735 71100.00000 0 12289666.963 -2062696.031 22321405.148 10 0 59735 72000.00000 0 11288212.226 527465.490 22930848.968 10 0 59735 72900.00000 0 10465091.217 3229621.639 23097896.693 10 0 59735 73800.00000 0 9843049.885 5978252.004 22819262.473 10 0 59735 74700.00000 0 9432986.476 8704896.391 22100200.246 10 0 59735 75600.00000 0 9233574.216 11340744.397 20954414.025 10 0 59735 76500.00000 0 9231406.691 13819249.519 19403812.560 10 0 59735 77400.00000 0 9401660.773 16078662.388 17478111.447 10 0 59735 78300.00000 0 9709250.944 18064380.436 15214288.108 10 0 59735 79200.00000 0 10110428.793 19731017.913 12655897.518 10 0 59735 80100.00000 0 10554762.875 21044110.616 9852259.177 10 0 59735 81000.00000 0 10987417.935 21981383.907 6857528.391 10 0 59735 81900.00000 0 11351639.236 22533529.798 3729667.479 10 0 59735 82800.00000 0 11591338.252 22704458.612 529335.154 10 0 59735 83700.00000 0 11653670.623 22511012.461 -2681285.490 10 0 59735 84600.00000 0 11491496.425 21982150.202 -5839698.004 10 0 59735 85500.00000 0 11065616.812 21157636.103 -8884318.552 10 0 59736 0.00000 0 10346689.656 20086286.010 -11755691.663 10 0 59736 900.00000 0 9316739.326 18823843.491 -14397671.920 10 0 59736 1800.00000 0 7970194.116 17430577.026 -16758542.591 10 0 59736 2700.00000 0 6314402.524 15968698.458 -18792052.294 10 0 59736 3600.00000 0 4369604.128 14499714.472 -20458343.264 10 0 59736 4500.00000 0 2168353.252 13081824.218 -21724752.499 10 0 59736 5400.00000 0 -245582.250 11767475.041 -22566468.103 10 0 59736 6300.00000 0 -2818801.947 10601181.390 -22967026.584 10 0 59736 7200.00000 0 -5490267.313 9617700.528 -22918640.498 10 0 59736 8100.00000 0 -8193625.673 8840642.995 -22422349.649 10 0 59736 9000.00000 0 -10859765.271 8281576.632 -21487993.036 10 0 59736 9900.00000 0 -13419493.081 7939661.454 -20134002.716 10 0 59736 10800.00000 0 -15806222.052 7801829.297 -18387024.683 10 0 59736 11700.00000 0 -17958554.296 7843498.597 -16281375.565 10 0 59736 12600.00000 0 -19822651.511 8029791.418 -13858347.516 10 0 59736 13500.00000 0 -21354293.595 8317198.348 -11165376.747 10 0 59736 14400.00000 0 -22520540.189 8655617.860 -8255093.910 10 0 59736 15300.00000 0 -23300927.231 8990681.072 -5184276.869 10 0 59736 16200.00000 0 -23688150.873 9266261.237 -2012728.053 10 0 59736 17100.00000 0 -23688213.105 9427060.090 1197900.263 10 0 59736 18000.00000 0 -23320026.306 9421160.781 4385308.709 10 0 59736 18900.00000 0 -22614496.686 9202439.354 7487757.676 10 0 59736 19800.00000 0 -21613128.154 8732733.575 10445254.905 10 0 59736 20700.00000 0 -20366207.630 7983678.876 13200701.325 10 0 59736 21600.00000 0 -18930649.564 6938135.684 15700974.287 10 0 59736 22500.00000 0 -17367590.619 5591149.832 17897929.046 10 0 59736 23400.00000 0 -15739834.870 3950407.253 19749301.325 10 0 59736 24300.00000 0 -14109255.062 2036164.948 21219496.059 10 0 59736 25200.00000 0 -12534256.367 -119338.613 22280249.627 10 0 59736 26100.00000 0 -11067405.937 -2472969.552 22911155.121 10 0 59736 27000.00000 0 -9753324.256 -4972237.359 23100042.518 10 0 59736 27900.00000 0 -8626923.482 -7557224.717 22843207.803 10 0 59736 28800.00000 0 -7712063.943 -10162831.109 22145487.259 10 0 59736 29700.00000 0 -7020683.170 -12721240.506 21020175.411 10 0 59736 30600.00000 0 -6552433.008 -15164514.256 19488787.225 10 0 59736 31500.00000 0 -6294840.115 -17427204.722 17580667.564 10 0 59736 32400.00000 0 -6223984.056 -19448883.928 15332453.172 10 0 59736 33300.00000 0 -6305666.222 -21176484.017 12787394.963 10 0 59736 34200.00000 0 -6497022.562 -22566353.003 9994550.996 10 0 59736 35100.00000 0 -6748514.482 -23585940.105 7007863.042 10 0 59736 36000.00000 0 -7006215.940 -24215039.260 3885132.287 10 0 59736 36900.00000 0 -7214301.668 -24446536.918 686912.245 10 0 59736 37800.00000 0 -7317631.956 -24286630.493 -2524660.760 10 0 59736 38700.00000 0 -7264324.292 -23754505.645 -5687077.262 10 0 59736 39600.00000 0 -7008201.688 -22881483.508 -8738680.462 10 0 59736 40500.00000 0 -6511011.719 -21709671.620 -11619883.284 10 0 59736 41400.00000 0 -5744319.294 -20290173.896 -14274351.352 10 0 59736 42300.00000 0 -4690989.578 -18680934.410 -16650126.657 10 0 59736 43200.00000 0 -3346194.676 -16944305.984 -18700667.808 10 0 59736 44100.00000 0 -1717898.005 -15144446.925 -20385784.259 10 0 59736 45000.00000 0 173207.110 -13344657.126 -21672444.083 10 0 59736 45900.00000 0 2294304.451 -11604767.571 -22535437.739 10 0 59736 46800.00000 0 4601583.599 -9978695.051 -22957883.443 10 0 59736 47700.00000 0 7041843.535 -8512266.761 -22931563.313 10 0 59736 48600.00000 0 9554503.754 -7241407.526 -22457083.349 10 0 59736 49500.00000 0 12073937.836 -6190766.433 -21543854.201 10 0 59736 50400.00000 0 14532030.360 -5372840.410 -20209893.701 10 0 59736 51300.00000 0 16860848.674 -4787630.440 -18481456.074 10 0 59736 52200.00000 0 18995316.301 -4422842.872 -16392496.429 10 0 59736 53100.00000 0 20875774.908 -4254624.707 -13983982.764 10 0 59736 54000.00000 0 22450327.147 -4248798.650 -11303070.776 10 0 59736 54900.00000 0 23676862.437 -4362542.419 -8402159.581 10 0 59736 55800.00000 0 24524681.796 -4546438.128 -5337848.791 10 0 59736 56700.00000 0 24975655.465 -4746802.129 -2169819.050 10 0 59736 57600.00000 0 25024867.239 -4908194.494 1040340.643 10 0 59736 58500.00000 0 24680721.408 -4976000.428 4230334.813 10 0 59736 59400.00000 0 23964510.985 -4898973.768 7338368.679 10 0 59736 60300.00000 0 22909468.332 -4631635.199 10304337.188 10 0 59736 61200.00000 0 21559340.632 -4136424.843 13070973.385 10 0 59736 62100.00000 0 19966551.793 -3385519.862 15584935.198 10 0 59736 63000.00000 0 18190028.783 -2362242.216 17797811.377 10 0 59736 63900.00000 0 16292783.374 -1061999.144 19667029.322 10 0 59736 64800.00000 0 14339349.342 507281.775 21156649.782 10 0 59736 65700.00000 0 12393180.253 2325240.445 22238035.608 10 0 59736 66600.00000 0 10514113.824 4359691.282 22890384.003 10 0 59736 67500.00000 0 8756005.572 6567725.085 23101113.994 10 0 59736 68400.00000 0 7164627.256 8897261.692 22866103.093 10 0 59736 69300.00000 0 5775914.890 11288991.399 22189769.249 10 0 59736 70200.00000 0 4614637.034 13678627.600 21084996.454 10 0 59736 71100.00000 0 3693537.347 15999380.554 19572904.531 10 0 59736 72000.00000 0 3012986.599 18184552.761 17682465.947 10 0 59736 72900.00000 0 2561158.920 20170151.102 15449974.857 10 0 59736 73800.00000 0 2314725.941 21897409.347 12918375.983 10 0 59736 74700.00000 0 2240041.414 23315117.281 10136463.617 10 0 59736 75600.00000 0 2294768.440 24381659.679 7157963.516 10 0 59736 76500.00000 0 2429882.745 25066679.253 4040513.101 10 0 59736 77400.00000 0 2591969.160 25352292.309 844557.962 10 0 59736 78300.00000 0 2725715.236 25233803.906 -2367815.135 10 0 59736 79200.00000 0 2776496.701 24719889.702 -5534086.486 10 0 59736 80100.00000 0 2692944.525 23832234.036 -8592529.027 10 0 59736 81000.00000 0 2429383.120 22604636.841 -11483426.388 10 0 59736 81900.00000 0 1948033.831 21081624.871 -14150258.103 10 0 59736 82800.00000 0 1220887.251 19316624.366 -16540826.751 10 0 59736 83700.00000 0 231161.612 17369771.517 -18608302.821 10 0 59736 84600.00000 0 -1025717.986 15305453.177 -20312164.630 10 0 59736 85500.00000 0 -2541664.055 13189682.322 -21619012.736 99